Location: Mentone
(34.5413°N, 85.5351°W)
Time: 11:28:07
(UTC-05:00)

Vanguard 3 - All Passes

Search period start: 22 June 2017 00:00
Search period end: 02 July 2017 00:00
Orbit: 507 x 3266 km, 33.4° (Epoch: 21 June)

Date Brightness Start Highest point End Pass type
(mag) Time Alt. Az. Time Alt. Az. Time Alt. Az.
22 Jun - 13:24:59 10° SSE 13:34:33 19° SE 13:45:59 10° E daylight
22 Jun - 15:32:13 10° SW 15:48:09 52° SE 16:06:51 10° ENE daylight
22 Jun - 17:45:22 10° WSW 18:04:45 80° SSE 18:22:48 10° E daylight
22 Jun - 20:02:00 10° W 20:22:20 85° S 20:36:50 10° E visible
22 Jun - 22:20:17 10° WNW 22:37:52 60° SSW 22:48:37 10° SE visible
23 Jun - 00:40:36 10° W 00:49:45 21° SW 00:56:18 10° S visible
23 Jun - 14:19:19 10° SSW 14:32:34 37° SE 14:49:24 10° E daylight
23 Jun - 16:30:10 10° SW 16:47:45 70° SSE 17:07:02 10° E daylight
23 Jun - 18:45:11 10° W 19:05:20 87° S 19:22:10 10° E daylight
23 Jun - 21:02:41 10° W 21:22:20 75° SSW 21:35:20 10° ESE visible
23 Jun - 23:21:34 10° W 23:36:08 38° SW 23:45:25 10° SSE visible
24 Jun - 13:08:10 10° S 13:17:54 22° SE 13:30:10 10° E daylight
24 Jun - 15:16:04 10° SW 15:31:20 56° SSE 15:50:30 10° ENE daylight
24 Jun - 17:29:11 10° WSW 17:48:03 82° SSE 18:06:50 10° E daylight
24 Jun - 19:45:30 10° W 20:05:52 84° S 20:21:14 10° ESE daylight
24 Jun - 22:03:31 10° WNW 22:21:32 56° SSW 22:33:04 10° SE visible
25 Jun - 00:24:30 10° W 00:33:30 19° SW 00:40:13 10° SSW visible
25 Jun - 14:03:08 10° SSW 14:15:50 40° SE 14:33:01 10° E daylight
25 Jun - 16:14:08 10° WSW 16:30:59 73° SSE 16:50:47 10° E daylight
25 Jun - 18:28:56 10° W 18:48:44 87° S 19:06:23 10° E daylight
25 Jun - 20:46:01 10° W 21:05:54 72° SSW 21:19:45 10° ESE visible
25 Jun - 23:04:57 10° W 23:19:45 35° SW 23:29:40 10° SSE visible
26 Jun - 12:51:42 10° S 13:01:17 25° SE 13:14:04 10° E daylight
26 Jun - 15:00:06 10° SW 15:14:36 60° SSE 15:34:02 10° ENE daylight
26 Jun - 17:13:09 10° WSW 17:31:22 84° S 17:50:46 10° E daylight
26 Jun - 19:29:05 10° W 19:49:19 82° SSW 20:05:33 10° ESE daylight
26 Jun - 21:46:48 10° WNW 22:05:03 52° SW 22:17:24 10° SE visible
27 Jun - 00:08:36 10° W 00:17:09 17° SW 00:23:51 10° SSW visible
27 Jun - 11:44:44 10° SE 11:47:31 11° SE 11:50:32 10° ESE daylight
27 Jun - 13:47:09 10° SSW 13:59:10 43° SE 14:16:28 10° ENE daylight
27 Jun - 15:58:15 10° WSW 16:14:19 77° SSE 16:34:26 10° E daylight
27 Jun - 18:12:47 10° W 18:32:06 86° S 18:50:29 10° E daylight
27 Jun - 20:29:27 10° WNW 20:49:19 68° SSW 21:04:03 10° SE visible
27 Jun - 22:48:25 10° W 23:03:15 32° SW 23:13:44 10° SSE visible
28 Jun - 12:35:30 10° S 12:44:46 27° SE 12:57:46 10° E daylight
28 Jun - 14:44:18 10° SW 14:57:58 64° SSE 15:17:27 10° ENE daylight
28 Jun - 16:57:14 10° W 17:14:44 86° S 17:34:36 10° E daylight
28 Jun - 19:12:45 10° W 19:32:40 79° SSW 19:49:44 10° ESE daylight
28 Jun - 21:30:11 10° WNW 21:48:27 49° SW 22:01:34 10° SSE visible
28 Jun - 23:52:58 10° W 00:00:42 15° SW 00:07:05 10° SSW visible
29 Jun - 11:26:55 10° SSE 11:31:10 13° SE 11:36:08 10° ESE daylight
29 Jun - 13:31:19 10° SSW 13:42:38 47° SE 13:59:49 10° ENE daylight
29 Jun - 15:42:32 10° WSW 15:57:43 79° SSE 16:18:00 10° E daylight
29 Jun - 17:56:44 10° W 18:15:27 86° S 18:34:28 10° E daylight
29 Jun - 20:12:58 10° WNW 20:32:38 64° SSW 20:48:12 10° SE visible
29 Jun - 22:32:01 10° W 22:46:39 29° SW 22:57:35 10° S visible
30 Jun - 12:19:31 10° S 12:28:20 29° SE 12:41:21 10° E daylight
30 Jun - 14:28:39 10° SW 14:41:28 67° SSE 15:00:47 10° ENE daylight
30 Jun - 16:41:27 10° W 16:58:07 86° S 17:18:20 10° E daylight
30 Jun - 18:56:32 10° W 19:15:58 77° SSW 19:33:46 10° ESE daylight
30 Jun - 21:13:41 10° WNW 21:31:44 45° SW 21:45:33 10° SSE visible
30 Jun - 23:37:53 10° WSW 23:44:12 13° SW 23:49:44 10° SSW visible
01 Jul - 11:10:04 10° SSE 11:14:53 14° SE 11:20:50 10° E daylight
01 Jul - 13:15:40 10° SW 13:26:13 50° SE 13:43:06 10° ENE daylight
01 Jul - 15:26:55 10° WSW 15:41:13 82° SSE 16:01:27 10° E daylight
01 Jul - 17:40:48 10° W 17:58:47 84° S 18:18:20 10° ESE daylight
01 Jul - 19:56:35 10° WNW 20:15:52 60° SSW 20:32:11 10° SE visible
01 Jul - 22:15:48 10° W 22:29:58 26° SW 22:41:11 10° S visible
